Theta_e
305 306 306 305 304 306 307 307 307 306 305 305 304 302 301 299 298 298 297 296 294 293 293 292 292 292 292 291 290 289 289 288 287 287 287 288 288 288 289 289 288 288 288
305 305 304 304 304 304 304 305 305 306 305 304 304 302 301 300 299 298 297 297 295 295 293 292 292 291 291 290 290 289 288 287 286 286 286 286 287 287 286 286 286 287 288
304 305 305 304 304 304 305 304 303 303 303 303 303 302 301 300 299 298 297 296 296 296 294 292 292 291 291 290 289 288 287 286 286 285 285 286 286 285 285 285 286 285 284
300 302 304 305 305 304 303 303 303 303 303 302 302 302 302 300 300 297 297 296 295 295 293 292 291 291 290 290 288 288 287 286 286 286 285 285 285 285 285 285 284 285 284
295 297 301 304 305 305 305 303 301 301 301 300 301 301 301 300 299 298 297 296 295 294 292 291 290 290 289 289 288 287 286 286 286 285 285 286 285 285 284 284 284 284 284
297 294 296 300 302 303 302 302 303 302 299 299 299 300 299 299 299 297 296 296 295 294 292 291 290 289 288 288 287 287 286 286 286 285 286 285 285 284 283 283 283 283 281
290 293 293 297 298 298 300 301 300 301 299 299 298 297 299 298 297 296 295 295 294 293 292 290 289 288 288 287 286 286 285 285 285 286 286 285 283 283 283 283 283 281 280
289 290 294 293 297 298 296 295 297 297 297 297 297 296 297 297 295 295 294 294 293 292 291 290 289 288 287 287 285 284 285 285 284 284 284 283 282 283 282 281 281 279 280
287 287 289 292 293 296 298 296 293 292 294 295 295 295 294 293 294 293 293 292 291 291 289 288 287 287 286 286 285 283 283 284 283 283 284 283 282 281 280 280 281 280 281
285 286 286 288 290 293 294 295 294 292 291 291 291 292 293 292 291 291 290 290 290 289 288 287 286 286 285 284 283 282 282 283 283 283 283 282 281 281 280 280 279 279 279
284 284 285 286 287 290 293 294 291 291 293 290 290 289 289 289 290 288 287 288 289 288 287 286 285 285 283 282 282 282 282 281 281 283 282 281 280 280 279 279 278 278 278
283 283 284 285 285 287 289 291 293 290 289 292 288 287 286 287 287 286 285 285 287 287 287 286 286 284 283 282 280 280 280 279 281 281 280 280 279 279 278 278 278 277 276
282 283 282 283 284 284 286 289 290 291 289 290 291 288 286 287 286 284 285 284 286 286 285 286 284 283 283 280 279 279 280 280 280 280 279 278 278 277 277 277 277 277 277
278 280 280 281 281 282 284 286 288 290 290 289 288 292 290 287 286 284 284 285 283 284 284 285 283 281 280 280 280 279 280 279 279 278 277 277 277 277 277 276 276 276 276
275 277 277 278 279 280 280 283 285 288 289 289 291 289 290 290 290 288 285 284 283 282 284 282 279 279 279 282 281 279 279 278 278 277 276 276 276 275 275 275 275 275 275
272 274 274 273 276 277 278 280 282 284 287 289 288 289 289 289 288 287 286 283 283 282 282 280 278 280 281 281 279 277 277 277 276 275 275 275 275 275 274 274 274 274 274
268 270 271 272 272 274 275 278 280 282 284 284 284 282 285 287 286 286 284 282 282 280 281 280 279 281 281 280 278 277 276 276 275 275 275 275 274 274 273 273 273 273 273
267 268 268 269 271 272 274 276 279 280 282 284 283 282 282 281 282 283 283 282 281 279 279 281 281 281 280 279 277 276 275 275 274 274 274 274 273 273 272 272 272 272 272
265 265 266 267 269 271 273 275 278 279 280 282 281 281 282 281 279 280 281 281 281 278 278 280 281 280 279 277 275 275 275 274 274 273 273 273 273 272 271 271 271 271 270
266 267 269 270 271 271 272 275 278 279 280 280 280 280 281 280 279 279 280 281 280 278 277 280 280 279 277 275 274 274 274 274 273 273 273 272 272 271 271 270 270 270 269
267 269 271 271 271 271 272 274 277 278 278 278 279 279 280 280 279 279 281 280 278 278 278 279 278 277 274 273 274 274 273 273 273 272 272 271 271 271 270 270 270 270 269
269 270 271 272 272 273 275 276 276 277 277 277 277 278 279 279 279 279 280 279 278 278 278 277 276 273 273 273 273 273 273 272 271 271 271 271 271 270 270 270 269 269 269
270 271 274 275 274 275 276 276 276 275 275 276 277 278 279 278 279 279 279 278 278 276 275 274 272 272 272 272 272 272 272 271 271 270 270 271 270 270 269 269 269 269 268
270 271 273 273 274 274 274 274 274 275 275 276 276 277 278 278 278 278 277 276 276 275 273 272 272 272 272 271 271 271 271 271 270 270 270 270 270 270 269 269 269 268 268
270 271 271 272 272 273 273 274 274 275 275 275 276 276 277 277 277 276 276 275 274 272 271 271 271 271 271 271 270 270 270 270 270 270 270 270 270 269 269 269 269 268 268
269 269 270 271 271 271 272 272 273 273 274 274 275 275 275 275 275 275 274 271 270 271 271 271 271 270 270 270 270 270 270 270 270 269 270 270 269 269 269 269 269 268 267
Wind_Speed
28 30 33 34 36 39 43 45 46 45 46 45 45 45 45 47 48 47 46 43 42 41 40 39 35 33 30 27 25 23 22 23 22 21 20 18 19 21 23 27 29 30 31
28 30 34 38 40 39 41 43 46 48 48 47 46 46 47 46 49 51 50 47 46 45 44 42 39 36 32 29 27 25 24 24 24 22 21 21 20 24 27 29 31 31 32
27 27 28 31 35 40 40 43 45 48 51 51 50 50 49 50 51 53 52 50 47 45 46 45 41 39 35 32 29 27 26 25 24 24 22 20 22 23 26 29 33 36 37
26 29 30 29 30 32 38 41 46 47 48 52 52 52 51 52 52 56 55 53 49 48 47 46 44 41 37 33 31 29 27 26 25 24 21 20 23 23 28 32 34 34 38
32 29 29 31 29 29 31 34 40 45 48 50 49 53 52 54 56 58 58 54 52 51 50 48 46 43 38 35 34 31 29 26 25 23 20 20 22 24 27 30 35 38 40
40 37 33 30 28 31 31 32 36 39 45 47 51 51 54 56 59 59 58 56 55 54 53 51 48 44 41 38 35 32 29 27 25 23 20 20 21 22 24 28 32 35 39
42 40 37 33 30 27 27 30 35 36 40 45 48 52 52 55 58 59 59 57 56 56 55 53 50 46 42 39 36 33 30 29 26 22 20 19 20 19 23 25 28 31 35
44 44 42 40 34 32 30 28 29 32 35 39 44 49 50 55 55 57 59 56 56 57 57 54 51 47 42 39 36 34 30 26 24 19 17 17 18 18 20 23 26 32 36
47 45 41 42 43 36 31 32 27 30 32 36 40 43 47 52 52 55 56 59 58 58 55 52 47 45 40 38 36 35 31 28 23 18 18 17 14 15 17 21 24 30 37
51 51 50 42 42 42 34 29 28 28 30 34 36 39 41 44 47 50 54 58 55 55 53 51 46 43 38 38 38 34 31 27 21 18 17 14 15 15 16 19 23 27 30
54 53 51 50 41 37 38 35 29 27 25 29 31 35 38 41 37 44 49 55 52 53 53 51 47 42 40 36 36 33 28 22 20 19 15 14 14 16 16 18 20 25 28
56 57 53 50 47 39 34 35 35 29 28 25 28 32 35 33 30 38 43 49 47 47 48 48 43 42 38 38 31 27 22 19 20 15 14 13 15 16 17 19 21 24 27
58 58 57 54 51 45 38 36 33 34 32 31 28 30 32 30 30 35 42 44 43 45 45 41 40 38 36 29 26 25 26 23 17 16 15 15 16 17 17 20 22 24 29
57 60 57 55 52 44 43 38 37 34 35 37 35 31 31 32 33 38 45 42 39 39 35 37 38 39 38 31 30 29 25 22 18 17 16 15 15 16 17 19 24 27 34
56 57 57 53 51 47 39 41 41 37 34 36 39 39 36 36 37 39 44 48 48 43 37 37 38 40 37 35 33 29 26 22 20 17 15 14 14 16 18 19 23 28 33
54 53 51 48 47 44 40 39 41 38 34 34 36 38 38 34 31 32 40 47 47 44 37 44 46 44 41 37 32 29 24 22 18 15 14 13 14 16 20 22 25 30 34
45 46 45 44 43 42 39 32 39 37 32 34 32 32 35 33 33 27 32 47 42 40 41 46 47 44 41 34 30 27 24 20 16 14 13 13 14 16 19 24 28 31 35
41 41 41 42 41 40 38 35 35 36 35 31 32 31 33 30 28 26 26 43 40 42 46 42 44 42 36 32 31 27 22 18 15 13 12 12 14 17 21 25 29 32 36
40 41 39 39 41 40 36 32 35 35 33 31 30 31 31 29 24 27 34 49 48 52 46 41 39 36 34 31 29 25 20 17 14 12 12 12 14 18 22 26 31 32 35
38 37 36 37 36 35 34 29 34 35 32 30 28 26 32 28 27 32 40 43 47 48 42 39 36 34 31 28 25 21 18 15 12 11 11 12 14 17 22 28 31 34 36
35 34 32 33 32 29 26 26 31 30 30 28 27 26 32 33 29 33 38 45 46 41 37 34 34 31 28 25 20 18 15 13 11 11 11 12 14 17 22 27 31 34 40
30 32 32 31 27 22 21 25 26 25 24 23 23 23 25 29 33 39 45 41 37 37 33 30 29 26 23 19 17 14 12 10 10 11 11 12 14 17 24 28 31 34 41
25 24 22 16 16 17 20 20 18 17 17 19 22 26 32 33 33 39 39 34 32 28 26 25 23 21 18 16 14 11 9 9 9 10 11 13 14 19 24 29 32 36 41
18 15 13 8 7 7 8 10 11 14 19 22 24 27 29 28 29 30 32 31 25 25 22 21 19 16 15 12 10 9 9 10 9 10 12 14 16 20 26 31 33 36 40
14 11 8 5 2 1 4 8 12 16 19 20 23 23 23 26 28 29 25 22 24 22 21 18 16 13 10 9 9 10 10 10 10 11 12 15 18 22 27 32 34 36 40
13 11 9 7 5 4 4 7 10 13 17 19 21 20 21 24 24 22 21 21 20 18 16 14 11 9 8 8 9 10 9 9 10 11 13 15 19 23 29 33 35 36 40
Wind_Direction
305 296 286 275 260 253 252 252 250 249 249 248 245 242 238 234 232 233 234 235 236 237 237 238 240 243 245 249 252 255 258 260 262 265 271 283 292 302 309 312 315 318 317
307 300 293 287 283 276 270 262 256 252 251 248 247 244 241 238 236 234 234 232 232 234 237 236 237 238 241 246 249 252 254 258 264 272 281 292 306 318 321 322 324 324 319
318 302 294 291 285 280 277 270 263 260 254 249 246 243 242 240 238 236 235 234 233 235 237 236 236 237 240 242 245 248 251 254 261 269 282 297 311 317 321 325 326 327 327
333 323 310 299 292 286 282 275 270 264 258 254 250 247 245 243 240 238 235 234 233 234 235 235 235 235 237 240 242 245 246 250 257 268 280 295 310 318 325 326 321 323 324
344 340 329 312 295 285 282 279 273 268 264 258 251 248 246 243 241 237 234 234 234 233 232 232 233 233 235 236 238 240 244 248 256 262 277 295 304 318 323 323 320 323 322
336 339 339 328 306 292 284 279 274 273 268 262 257 252 249 246 244 240 237 234 233 232 231 230 231 231 232 234 237 238 243 248 254 261 274 292 303 314 317 319 321 325 325
330 331 333 337 332 317 291 278 272 268 267 263 259 254 252 250 245 241 238 235 234 232 229 228 228 229 229 231 236 238 239 243 248 262 278 291 297 308 312 312 316 319 317
328 326 322 325 332 333 323 296 282 274 266 264 261 257 253 250 246 241 240 237 233 232 231 229 227 226 226 229 231 233 235 238 246 257 274 282 290 299 312 315 314 311 312
324 323 322 320 319 322 327 321 301 282 270 262 258 255 252 250 245 240 237 235 230 228 228 228 227 227 226 227 229 231 230 234 238 249 265 281 296 295 299 303 311 309 313
322 318 318 318 313 310 313 312 311 293 277 267 261 256 254 251 246 241 236 234 228 226 224 224 226 225 224 227 227 227 230 233 232 244 256 267 277 287 294 300 305 306 310
319 314 312 310 306 300 298 303 298 291 291 275 268 262 256 248 243 238 231 234 229 226 223 221 221 223 220 224 230 228 232 233 235 242 247 259 272 283 292 297 300 303 308
316 310 307 305 304 301 296 288 291 285 278 278 264 258 252 247 239 227 213 229 228 228 226 225 225 221 219 223 217 225 224 229 238 242 250 262 275 284 291 298 303 305 307
309 307 303 300 299 297 294 292 282 282 274 266 260 254 251 244 228 217 207 221 228 226 225 226 222 218 224 204 207 212 226 233 232 241 253 264 275 287 296 302 303 308 306
302 301 299 298 296 295 292 284 281 272 271 268 262 255 250 242 228 215 205 213 221 230 221 223 220 212 209 209 209 221 226 224 231 241 250 264 276 288 299 307 312 318 312
300 297 296 295 294 293 287 282 277 276 270 268 270 263 253 246 238 225 214 205 215 219 217 210 201 202 203 210 214 217 218 225 233 242 253 267 283 296 304 312 319 317 314
296 294 294 294 291 289 286 279 277 273 277 270 266 263 262 260 252 241 223 207 214 214 208 205 204 205 208 210 208 210 213 222 231 241 255 271 287 301 311 320 321 319 319
292 292 290 289 289 288 284 277 270 276 269 269 263 248 256 256 253 244 221 202 208 203 208 206 209 210 210 204 202 209 215 222 232 243 257 272 290 303 316 322 323 323 323
294 291 289 287 287 286 283 275 265 266 272 270 254 239 239 244 240 236 210 196 195 200 209 211 211 210 207 197 200 206 210 217 230 245 261 281 298 309 319 324 325 327 327
296 290 287 282 282 284 280 267 261 263 268 267 256 245 230 227 218 212 195 192 192 197 202 210 216 211 200 199 201 201 206 214 225 242 265 285 305 312 322 327 328 329 331
295 293 290 286 283 280 274 257 251 257 260 256 250 244 221 208 205 203 195 195 198 201 201 209 208 202 198 199 199 202 205 212 225 245 267 284 299 309 323 329 329 329 332
305 304 301 291 284 273 264 248 250 255 254 247 240 230 220 215 205 198 194 200 202 202 207 206 197 192 195 199 200 206 210 217 231 250 267 282 298 311 326 328 327 332 333
309 305 301 289 280 268 256 253 253 253 249 240 231 224 206 205 197 195 198 200 202 210 204 194 188 187 195 197 205 209 216 226 242 259 279 289 306 319 326 328 329 332 331
317 315 315 291 276 269 258 254 252 245 232 223 211 199 195 198 198 199 197 196 194 192 185 178 184 188 193 202 205 215 228 244 259 271 282 303 314 321 328 330 330 328 329
334 329 329 319 284 257 241 231 223 213 202 197 191 192 194 195 196 188 182 180 186 184 174 182 184 190 201 208 217 230 242 255 270 283 292 308 313 323 331 330 325 325 326
356 357 359 6 1 223 198 190 185 184 185 189 189 187 184 177 173 169 174 182 176 174 178 182 192 198 207 222 237 246 255 265 278 290 297 301 313 327 329 322 324 323 326
21 26 34 40 57 88 133 153 159 168 174 175 171 162 158 163 166 169 168 162 169 174 182 188 193 202 214 229 243 252 262 276 283 287 286 303 319 323 320 321 325 323 325